• Join FlightAware (Why Join?)
  • Login
  • US Flag GB Flag 
15:25 EST


 

Airport Tracker/Info


-or-


 

Live Flight TrackerFlight Track Log ✈ SKW6528 ✈ 16-Apr-2013 ✈ KDEN - KSGF

Flight Track Log - Related Links

Times and Time Zones

All times are in EDT time to prevent confusion due to time zone crossing. See the SKW6528 flight status page for this flight to view local times or setup timezone preferences in your user account.

Time Position Orientation Groundspeed Altitude Reporting Facility
EDT Latitude Longitude Course Direction KTS MPH feet Rate Location/Type
13:43 39.8667 -104.5500 108° East 228 262 7,500  Level Denver TRACON
13:44 39.8333 -104.4500 113° Southeast 280 322 9,600 1,920 Climbing Denver TRACON
13:45 39.6652 -104.0470 123° Southeast  Level FlightAware Approximate
13:45 39.8000 -104.3667 117° Southeast 298 343 11,400  Level Denver TRACON
13:46 39.6149 -103.8945 113° Southeast  Level FlightAware Approximate
13:46 39.7600 -104.2497 114° Southeast 313 360 13,000  Level Denver Center
13:47 39.5687 -103.7393 113° Southeast  Level FlightAware Approximate
13:47 39.7186 -104.1328 115° Southeast 331 381 15,000  Level Denver Center
13:48 39.6783 -104.0186 115° Southeast 347 399 16,900 1,740 Climbing Denver Center
13:49 39.6364 -103.9064 116° Southeast 344 396 18,600 1,560 Climbing Denver Center
13:50 39.5875 -103.7808 117° Southeast 360 414 20,100 1,200 Climbing Denver Center
13:51 39.5639 -103.6886 108° East 359 413 21,100 1,260 Climbing Denver Center
13:52 39.5231 -103.5333 109° East 382 440 22,800 1,500 Climbing Denver Center
13:53 39.4825 -103.3794 109° East 385 443 24,300 1,020 Climbing Denver Center
13:54 39.4458 -103.2442 109° East 394 453 25,000 720 Climbing Denver Center
13:55 39.4086 -103.1031 109° East 407 468 25,800 720 Climbing Denver Center
13:56 39.3700 -102.9583 109° East 419 482 26,500 660 Climbing Denver Center
13:57 39.3303 -102.8092 109° East 433 498 27,200 660 Climbing Denver Center
13:58 39.2908 -102.6675 110° East 438 504 27,900 660 Climbing Denver Center
13:59 39.2458 -102.5008 109° East 441 507 28,600 660 Climbing Denver Center
14:00 39.2075 -102.3581 109° East 442 509 29,300 720 Climbing Denver Center
14:01 39.1614 -102.1917 110° East 442 509 30,100 600 Climbing Denver Center
14:02 39.1214 -102.0481 110° East 444 511 30,600 480 Climbing Denver Center
14:03 39.0800 -101.9047 110° East 446 513 31,100 480 Climbing Denver Center
14:04 39.0311 -101.7344 110° East 451 519 31,700 480 Climbing Denver Center
14:05 38.9894 -101.5883 110° East 452 520 32,200 480 Climbing Denver Center
14:06 38.9400 -101.4167 110° East 456 525 32,800 360 Climbing Denver Center
14:07 38.8961 -101.2739 112° Southeast 453 521 33,000 60 Climbing Denver Center
14:08 38.8442 -101.1028 111° Southeast 458 527 33,000  Level Denver Center
14:09 38.7986 -100.9564 112° Southeast 461 531 33,000  Level Denver Center
14:10 38.7539 -100.8083 111° Southeast 464 534 33,000  Level Denver Center
14:11 38.7006 -100.6381 112° Southeast 461 531 33,000  Level Denver Center
14:12 38.6547 -100.4922 112° Southeast 462 532 33,000  Level Denver Center
14:13 38.6022 -100.3242 112° Southeast 456 525 33,000  Level Denver Center
14:14 38.5572 -100.1814 112° Southeast 452 520 33,000  Level Denver Center
14:15 38.5119 -100.0375 112° Southeast 454 522 33,000  Level Denver Center
14:16 38.4806 -99.8589 103° East 461 531 33,000  Level Denver Center
14:17 38.4603 -99.7256 101° East 463 533 33,000  Level Kansas City Center
14:18 38.4378 -99.5703 100° East 464 534 33,000  Level Kansas City Center
14:19 38.4108 -99.3864 101° East 465 535 33,000  Level Kansas City Center
14:20 38.3861 -99.2244 101° East 465 535 33,000  Level Kansas City Center
14:21 38.3628 -99.0631 100° East 465 535 33,000  Level Kansas City Center
14:22 38.3386 -98.9025 101° East 463 533 33,000  Level Kansas City Center
14:24 38.3153 -98.7411 100° East 462 532 33,000  Level Kansas City Center
14:25 38.2914 -98.5806 101° East 462 532 33,000  Level Kansas City Center
14:26 38.2658 -98.4206 101° East 461 531 33,000  Level Kansas City Center
14:27 38.2406 -98.2597 101° East 461 531 33,000  Level Kansas City Center
14:28 38.2108 -98.0664 101° East 461 531 33,000  Level Kansas City Center
14:29 38.1850 -97.9047 101° East 462 532 33,000  Level Kansas City Center
14:30 38.1575 -97.7356 102° East 462 532 33,000  Level Kansas City Center
14:31 38.1325 -97.5756 101° East 462 532 33,000  Level Kansas City Center
14:32 38.1069 -97.4214 102° East 458 527 33,000  Level Kansas City Center
14:33 38.0806 -97.2606 102° East 461 531 33,000  Level Kansas City Center
14:34 38.0531 -97.1003 102° East 464 534 33,000  Level Kansas City Center
14:35 38.0264 -96.9408 102° East 463 533 33,000  Level Kansas City Center
14:36 37.9997 -96.7808 102° East 463 533 33,000  Level Kansas City Center
14:37 37.9722 -96.6197 102° East 466 536 33,000  Level Kansas City Center
14:38 37.9392 -96.4283 102° East 464 534 33,000  Level Kansas City Center
14:39 37.9111 -96.2678 102° East 466 536 33,000  Level Kansas City Center
14:40 37.8800 -96.0958 103° East 465 535 33,000  Level Kansas City Center
14:41 37.8514 -95.9369 103° East 464 534 33,000  Level Kansas City Center
14:42 37.8231 -95.7775 103° East 463 533 33,000  Level Kansas City Center
14:43 37.7942 -95.6183 103° East 462 532 33,000 -900 Level Kansas City Center
14:44 37.7650 -95.4550 103° East 468 539 31,200 -2,040 Descending Kansas City Center
14:45 37.7325 -95.2828 103° East 486 559 28,900 -2,280 Descending Kansas City Center
14:46 37.7014 -95.1106 103° East 497 572 26,600 -2,280 Descending Kansas City Center
14:47 37.6708 -94.9467 103° East 488 562 24,300 -1,260 Descending Kansas City Center
14:48 37.6358 -94.7589 103° East 467 537 24,000 -300 Descending Kansas City Center
14:49 37.6058 -94.6031 104° East 458 527 23,700 -1,500 Descending Kansas City Center
14:50 37.5764 -94.4469 103° East 456 525 21,000 -2,760 Descending Kansas City Center
14:51 37.5461 -94.3011 105° East 440 506 18,200 -2,460 Descending Kansas City Center
14:52 37.4953 -94.1750 117° Southeast 411 473 16,000 -1,200 Descending Kansas City Center
14:53 37.4472 -94.0511 116° Southeast 374 430 15,700 -1,020 Descending Kansas City Center
14:54 37.4114 -93.9450 113° Southeast 343 395 14,000 -1,680 Descending Kansas City Center
14:55 37.3736 -93.8444 115° Southeast 326 375 12,300 -1,380 Descending Kansas City Center
14:56 37.3181 -93.7706 133° Southeast 299 344 11,200 -1,500 Descending Kansas City Center
14:57 37.2636 -93.6983 133° Southeast 289 333 9,300 -1,980 Descending Kansas City Center
14:59 37.2119 -93.6317 134° Southeast 276 318 7,200 -1,980 Descending Kansas City Center
15:00 37.1583 -93.5689 137° Southeast 269 310 5,200 -1,560 Descending Kansas City Center
15:01 37.1006 -93.5033 138° Southeast 264 304 4,000 -1,200 Descending Kansas City Center
15:03 37.2457 -93.3886 28° Northeast  Level Estimated
15:10 37.2457 -93.3886 202° Southwest  Level Estimated
15:11 37.2457 -93.3886 202° Southwest  Level Estimated